CZ-6A DEB, 54311

Orbit data source: Space-Track

CZ-6A DEB, 54311 is space debris in SSO originally from a launch on Fri, 11 Nov 2022 UTC launched from the Taiyaun Space Center, China (TSC). Debris objects in space refer to the collection of defunct objects orbiting the Earth. Examples of debris include non-operational satellites, rocket bodies, and fragments generated from explosions, collisions, or faulty payload assembly.

Loading next visibility...
Identifier
54311, 2022-151BE
Orbit
SSO
Country
Flag of CNCN / PRC
Related business
Manufacturer
SAST
Mission
Spacecraft
Bus & Motor
Unknown
Mass
Unknown
Launch date (UTC)
2022-11-11 (4 years ago)
Launch vehicle
Unknown
Launch site
Taiyaun Space Center, China (TSC)
Object type
Payload
Rocket body
Debris
Shape & HBR
Unknown shape, 0.1 m
Radar Cross Section
Medium (>0.1 m² and <1 m²)

Expand to show TLE details & history
Last TLE update: 2 days ago

TLE from 2 days ago
0 CZ-6A DEB
1 54311U 22151BE  26171.17083163  .00014125  00000-0  17136-2 0  9994
2 54311  98.6172 246.9000 0059722 235.7274 123.8274 14.82417418190934
Epoch: 2026-06-20T04:05Z
TLE epoch observation values (Epoch: 2026-06-20T04:05:59.852Z)
Latitude
0.00003°
Longitude
-82.98868°
Altitude
648.155 km
Speed
7.521 km/s
True Right ascension
16h 27m 35s
True Declination
0° 00' 00"
Sunlit
Object was in full shadow at epoch
Visualization orbit readout
Latitude
Unknown
Longitude
Unknown
Altitude
Unknown
Speed
Unknown
Apparent Right ascension
Unknown
Apparent Declination
Unknown
Sunlit
N/A
Visualization observer readout
Local Sidereal Time
21:33:43
Azimuth
Unknown
Elevation
Unknown
Doppler factor
Unknown
Orbital elements
Apogee altitude
660.562 km
Perigee altitude
576.988 km
Semi-major axis
6,996.912 km
Eccentricity
0.00597
Inclination
98.6172°
RAAN
246.9°
Arg. of periapsis
235.7274°
True anomaly
124.39355°
Mean anomaly
123.8274°
Eccentric anomaly
124.11071°
Mean motion
3.70837 °/min
Orbital period
97.08 mins
BSTAR
0.0017136
Loading maneuver chart data...
Computing Atmospheric mass density...
Loading historical data...
Loading historical data...
Loading historical data...
Loading historical data...
Loading historical data...
Loading historical data...
Loading historical data...

Documentation

Showing up to 5 results
|